| time (UTC) | temp F | wind direction | speed knots | gust knots | rain 1hr in | rain 24hr in | rain mn in | humidity % | barometer mb |
| 20260506013037 | 68 | 0 | 0.0 | 0.0 | 0.00 | 0.00 | 0.00 | 87 | 1014.1 |
| 20260506011541 | 69 | 0 | 0.0 | 0.0 | 0.00 | 0.00 | 0.00 | 85 | 1014.0 |
| 20260506010049 | 69 | 0 | 0.0 | 0.0 | 0.00 | 0.00 | 0.00 | 84 | 1013.9 |
| 20260506004548 | 70 | 0 | 0.0 | 0.0 | 0.00 | 0.00 | 0.00 | 83 | 1013.9 |
| 20260506003041 | 71 | 0 | 0.0 | 0.0 | 0.00 | 0.00 | 0.00 | 81 | 1013.6 |
| 20260506001536 | 72 | 0 | 0.0 | 0.9 | 0.00 | 0.00 | 0.00 | 79 | 1013.6 |
| 20260506000035 | 73 | 200 | 0.0 | 2.6 | 0.00 | 0.00 | 0.00 | 78 | 1013.7 |
| 20260505234539 | 74 | 191 | 0.0 | 0.9 | 0.00 | 0.00 | 0.00 | 76 | 1013.7 |
| 20260505233037 | 75 | 238 | 0.9 | 4.3 | 0.00 | 0.00 | 0.00 | 73 | 1014.0 |
| 20260505231536 | 76 | 212 | 0.0 | 3.5 | 0.00 | 0.00 | 0.00 | 71 | 1013.9 |
| 20260505230045 | 77 | 0 | 0.9 | 4.3 | 0.00 | 0.00 | 0.00 | 70 | 1013.8 |
| 20260505224544 | 77 | 218 | 1.7 | 4.3 | 0.00 | 0.00 | 0.00 | 70 | 1013.9 |
| 20260505223037 | 76 | 241 | 2.6 | 7.0 | 0.00 | 0.00 | 0.00 | 69 | 1013.7 |
| 20260505221538 | 77 | 236 | 2.6 | 6.1 | 0.00 | 0.00 | 0.00 | 68 | 1013.7 |
| 20260505220042 | 79 | 200 | 0.9 | 5.2 | 0.00 | 0.00 | 0.00 | 66 | 1013.5 |
| 20260505214540 | 79 | 210 | 0.9 | 6.1 | 0.00 | 0.00 | 0.00 | 67 | 1013.4 |
| 20260505213045 | 80 | 147 | 2.6 | 8.7 | 0.00 | 0.00 | 0.00 | 62 | 1013.8 |
| 20260505211542 | 80 | 167 | 1.7 | 5.2 | 0.00 | 0.00 | 0.00 | 63 | 1013.7 |
| 20260505210037 | 79 | 228 | 2.6 | 8.7 | 0.00 | 0.00 | 0.00 | 63 | 1013.8 |
| 20260505204538 | 80 | 210 | 0.9 | 7.0 | 0.00 | 0.00 | 0.00 | 64 | 1013.8 |
| 20260505203044 | 79 | 226 | 4.3 | 10.4 | 0.00 | 0.00 | 0.00 | 61 | 1014.0 |
| 20260505201536 | 80 | 155 | 1.7 | 8.7 | 0.00 | 0.00 | 0.00 | 61 | 1014.1 |
| 20260505200039 | 80 | 181 | 3.5 | 7.8 | 0.00 | 0.00 | 0.00 | 59 | 1014.3 |
| 20260505194547 | 80 | 174 | 1.7 | 8.7 | 0.00 | 0.00 | 0.00 | 57 | 1014.5 |
| 20260505193055 | 81 | 214 | 1.7 | 7.8 | 0.00 | 0.00 | 0.00 | 56 | 1014.6 |
| 20260505191540 | 81 | 237 | 2.6 | 7.0 | 0.00 | 0.00 | 0.00 | 59 | 1014.6 |
| 20260505190041 | 80 | 226 | 2.6 | 11.3 | 0.00 | 0.00 | 0.00 | 55 | 1014.7 |
| 20260505184540 | 80 | 219 | 4.3 | 7.8 | 0.00 | 0.00 | 0.00 | 57 | 1014.9 |
| 20260505183040 | 80 | 175 | 0.9 | 11.3 | 0.00 | 0.00 | 0.00 | 59 | 1015.0 |
| 20260505181537 | 79 | 193 | 2.6 | 10.4 | 0.00 | 0.00 | 0.00 | 61 | 1015.0 |
| 20260505180040 | 79 | 253 | 1.7 | 6.1 | 0.00 | 0.00 | 0.00 | 61 | 1015.2 |
| 20260505174539 | 79 | 204 | 3.5 | 7.0 | 0.00 | 0.00 | 0.00 | 61 | 1015.2 |
| 20260505173039 | 78 | 141 | 3.5 | 9.6 | 0.00 | 0.00 | 0.00 | 63 | 1015.4 |
| 20260505171545 | 78 | 226 | 1.7 | 7.8 | 0.00 | 0.00 | 0.00 | 63 | 1015.3 |
| 20260505170039 | 78 | 136 | 1.7 | 6.1 | 0.00 | 0.00 | 0.00 | 66 | 1015.2 |
| 20260505164540 | 78 | 244 | 0.9 | 6.1 | 0.00 | 0.00 | 0.00 | 66 | 1015.3 |
| 20260505163040 | 77 | 243 | 1.7 | 5.2 | 0.00 | 0.00 | 0.00 | 63 | 1015.3 |
| 20260505161539 | 77 | 174 | 1.7 | 5.2 | 0.00 | 0.00 | 0.00 | 65 | 1015.4 |
| 20260505153044 | 77 | 231 | 1.7 | 7.8 | 0.00 | 0.00 | 0.00 | 63 | 1015.4 |
| 20260505151538 | 76 | 184 | 2.6 | 5.2 | 0.00 | 0.00 | 0.00 | 61 | 1015.3 |
| 20260505124544 | 56 | 0 | 0.0 | 0.0 | 0.00 | 0.00 | 0.00 | 97 | 1015.1 |
| 20260505123052 | 54 | 0 | 0.0 | 0.0 | 0.00 | 0.00 | 0.00 | 96 | 1014.9 |
| 20260505121538 | 52 | 0 | 0.0 | 0.0 | 0.00 | 0.00 | 0.00 | 96 | 1014.8 |
| 20260505120051 | 51 | 0 | 0.0 | 0.0 | 0.00 | 0.00 | 0.00 | 96 | 1014.7 |
| 20260505114538 | 50 | 0 | 0.0 | 0.0 | 0.00 | 0.00 | 0.00 | 96 | 1014.6 |
| 20260505113035 | 50 | 0 | 0.0 | 0.0 | 0.00 | 0.00 | 0.00 | 95 | 1014.4 |
| 20260505111540 | 50 | 0 | 0.0 | 0.0 | 0.00 | 0.00 | 0.00 | 95 | 1014.2 |
| 20260505101541 | 50 | 0 | 0.0 | 0.0 | 0.00 | 0.00 | 0.00 | 95 | 1014.2 |
| 20260505100041 | 50 | 0 | 0.0 | 0.0 | 0.00 | 0.00 | 0.00 | 95 | 1014.1 |
| 20260505094538 | 51 | 0 | 0.0 | 0.0 | 0.00 | 0.00 | 0.00 | 95 | 1014.0 |
| 20260505093038 | 50 | 0 | 0.0 | 0.0 | 0.00 | 0.00 | 0.00 | 95 | 1014.1 |
| 20260505091538 | 51 | 0 | 0.0 | 0.0 | 0.00 | 0.00 | 0.00 | 95 | 1013.9 |
| 20260505090039 | 51 | 0 | 0.0 | 0.0 | 0.00 | 0.00 | 0.00 | 95 | 1013.8 |
| 20260505084554 | 51 | 0 | 0.0 | 0.0 | 0.00 | 0.00 | 0.00 | 95 | 1013.7 |
| 20260505083058 | 51 | 0 | 0.0 | 0.0 | 0.00 | 0.00 | 0.00 | 95 | 1013.6 |
| 20260505081552 | 51 | 0 | 0.0 | 0.0 | 0.00 | 0.00 | 0.00 | 94 | 1013.6 |
| 20260505080050 | 51 | 0 | 0.0 | 0.0 | 0.00 | 0.00 | 0.00 | 94 | 1013.6 |
| 20260505074537 | 51 | 0 | 0.0 | 0.0 | 0.00 | 0.00 | 0.00 | 94 | 1013.9 |
| 20260505073049 | 51 | 0 | 0.0 | 0.0 | 0.00 | 0.00 | 0.00 | 94 | 1013.7 |
| 20260505071545 | 51 | 0 | 0.0 | 0.0 | 0.00 | 0.00 | 0.00 | 94 | 1013.8 |
| 20260505070043 | 51 | 0 | 0.0 | 0.0 | 0.00 | 0.00 | 0.00 | 94 | 1014.0 |
| 20260505064537 | 51 | 0 | 0.0 | 0.0 | 0.00 | 0.00 | 0.00 | 94 | 1014.1 |
| 20260505063041 | 51 | 0 | 0.0 | 0.0 | 0.00 | 0.00 | 0.00 | 94 | 1014.5 |
| 20260505061542 | 51 | 0 | 0.0 | 0.0 | 0.00 | 0.00 | 0.00 | 93 | 1014.6 |
| 20260505060053 | 52 | 0 | 0.0 | 0.0 | 0.00 | 0.00 | 0.00 | 93 | 1014.9 |
| 20260505054541 | 52 | 0 | 0.0 | 0.0 | 0.00 | 0.00 | 0.00 | 93 | 1014.8 |
| 20260505053040 | 52 | 0 | 0.0 | 0.0 | 0.00 | 0.00 | 0.00 | 93 | 1015.1 |
| 20260505051537 | 52 | 0 | 0.0 | 0.0 | 0.00 | 0.00 | 0.00 | 92 | 1015.3 |
| 20260505041550 | 54 | 0 | 0.0 | 0.0 | 0.00 | 0.00 | 0.00 | 91 | 1015.3 |
| 20260505040046 | 54 | 0 | 0.0 | 0.0 | 0.00 | 0.00 | 0.00 | 90 | 1015.3 |
| 20260505034538 | 55 | 0 | 0.0 | 0.0 | 0.00 | 0.00 | 0.00 | 90 | 1015.3 |
| 20260505033036 | 55 | 0 | 0.0 | 0.0 | 0.00 | 0.00 | 0.00 | 89 | 1015.3 |
| 20260505031539 | 56 | 0 | 0.0 | 0.0 | 0.00 | 0.00 | 0.00 | 89 | 1015.4 |
| 20260505030051 | 56 | 0 | 0.0 | 0.0 | 0.00 | 0.00 | 0.00 | 89 | 1015.4 |
| 20260505024538 | 56 | 0 | 0.0 | 0.0 | 0.00 | 0.00 | 0.00 | 88 | 1015.2 |
| 20260505023037 | 56 | 0 | 0.0 | 0.0 | 0.00 | 0.00 | 0.00 | 87 | 1015.1 |
| 20260505021536 | 57 | 0 | 0.0 | 0.0 | 0.00 | 0.00 | 0.00 | 86 | 1014.9 |
| 20260505020040 | 58 | 0 | 0.0 | 0.0 | 0.00 | 0.00 | 0.00 | 84 | 1015.1 |
| 20260505014600 | 59 | 0 | 0.0 | 0.0 | 0.00 | 0.00 | 0.00 | 83 | 1015.1 |